Location: Unspecified
(0.0000°N, 0.0000°E)
Time: 17:41:24
(UTC+00:00)

deb r/b Ablestar - Pass Details

Date: 19 November 2025
Orbit: 783 x 882 km, 66.7° (Epoch: 05 December)

Event Time Altitude Azimuth Distance (km) Brightness Sun altitude
Exits shadow 02:28:42 11° 127° (SE) 2,305 ? -45.5°
Drops below altitude 10° 02:28:52 10° 128° (SE) 2,360 ? -45.5°
Sets 02:31:37 0° 140° (SE) 3,305 ? -44.9°
